weather.gov     
National Weather Service

Terminal Aerodrome Forecast
NWS Homepage
This page is being discontinued on March 12, 2014.
The same data is available at this site. Please update your bookmarks.
Thank you, and we apologize for the inconvenience.
Please send an email to SR-SRH.Webmaster@noaa.gov with any concerns.


Current Version
Previous Version:    01  02  03  04  05  06  07  08  09  10  11  12  13  14  15  16  17  18  19  20  21  22  23  24  25  26  27  28  29  30  
   31  32  33  34  35  
[Printable]
461
FTUS46 KSEW 202300
TAFOLM
TAF
KOLM 202324Z 2100/2124 21008KT P6SM VCSH SCT040 BKN070
      TEMPO 2100/2102 -SHRA BKN040
     FM210200 20005KT P6SM VCSH BKN035
     FM211000 19004KT 4SM BR OVC020
     FM211800 18010KT P6SM OVC030=


U.S. Dept. of Commerce
NOAA National Weather Service
1325 East West Highway
Silver Spring, MD 20910
E-mail: w-nws.webmaster@noaa.gov
Page last modified: May 16, 2007
NATIONAL WEATHER SERVICE: for Safety, for Work, for Fun - FOR LIFE